TimeEST,TemperatureF,Dew PointF,Humidity,Sea Level PressureIn,VisibilityMPH,Wind Direction,Wind SpeedMPH,Gust SpeedMPH,PrecipitationIn,Events,Conditions,WindDirDegrees,DateUTC
12:13 AM,11.7,8.6,88,30.05,10.0,North,6.9,-,N/A,,Clear,10,2013-03-04 05:13:00
12:33 AM,11.5,8.6,88,30.06,10.0,North,5.8,-,N/A,,Clear,360,2013-03-04 05:33:00
1:13 AM,11.3,8.4,88,30.07,10.0,North,3.5,-,N/A,,Clear,360,2013-03-04 06:13:00
1:53 AM,10.2,7.0,87,30.07,10.0,North,5.8,-,N/A,,Clear,360,2013-03-04 06:53:00
2:13 AM,9.3,5.9,86,30.08,10.0,North,3.5,-,N/A,,Clear,350,2013-03-04 07:13:00
2:34 AM,9.5,5.9,85,30.08,10.0,North,4.6,-,N/A,,Clear,350,2013-03-04 07:34:00
2:53 AM,9.9,5.9,84,30.08,10.0,NNW,5.8,-,N/A,,Clear,340,2013-03-04 07:53:00
3:13 AM,8.2,3.7,82,30.08,10.0,North,4.6,-,N/A,,Clear,350,2013-03-04 08:13:00
3:34 AM,8.1,3.7,83,30.08,10.0,North,5.8,-,N/A,,Clear,350,2013-03-04 08:34:00
4:13 AM,9.0,5.0,84,30.08,10.0,North,4.6,-,N/A,,Clear,350,2013-03-04 09:13:00
4:34 AM,8.4,3.6,81,30.08,10.0,North,6.9,-,N/A,,Clear,360,2013-03-04 09:34:00
4:53 AM,8.4,3.6,81,30.09,10.0,NNW,4.6,-,N/A,,Clear,340,2013-03-04 09:53:00
5:13 AM,7.9,3.4,82,30.10,10.0,North,5.8,-,N/A,,Clear,350,2013-03-04 10:13:00
5:34 AM,8.2,3.6,81,30.11,10.0,North,5.8,-,N/A,,Clear,350,2013-03-04 10:34:00
5:53 AM,7.9,3.2,81,30.11,10.0,NNW,5.8,-,N/A,,Clear,340,2013-03-04 10:53:00
6:13 AM,7.2,2.7,82,30.11,10.0,NNW,3.5,-,N/A,,Clear,340,2013-03-04 11:13:00
7:13 AM,6.4,2.3,83,30.11,10.0,NNW,6.9,-,N/A,,Clear,340,2013-03-04 12:13:00
7:34 AM,5.5,1.6,84,30.11,10.0,North,8.1,-,N/A,,Clear,360,2013-03-04 12:34:00
7:53 AM,8.1,3.4,81,30.12,10.0,North,8.1,-,N/A,,Clear,350,2013-03-04 12:53:00
8:13 AM,10.0,4.8,79,30.12,10.0,North,5.8,-,N/A,,Clear,360,2013-03-04 13:13:00
8:34 AM,10.6,4.8,78,30.13,10.0,North,5.8,-,N/A,,Clear,360,2013-03-04 13:34:00
8:53 AM,11.5,5.5,77,30.13,10.0,North,6.9,-,N/A,,Clear,360,2013-03-04 13:53:00
9:13 AM,12.6,5.2,72,30.14,10.0,North,3.5,-,N/A,,Clear,360,2013-03-04 14:13:00
9:33 AM,13.6,5.4,70,30.13,10.0,North,4.6,-,N/A,,Clear,10,2013-03-04 14:33:00
9:53 AM,14.7,5.4,66,30.14,10.0,North,4.6,-,N/A,,Clear,360,2013-03-04 14:53:00
10:13 AM,16.2,5.7,64,30.14,10.0,North,9.2,-,N/A,,Clear,360,2013-03-04 15:13:00
10:33 AM,17.4,5.7,60,30.14,10.0,North,5.8,-,N/A,,Clear,360,2013-03-04 15:33:00
10:53 AM,18.5,5.5,57,30.14,10.0,North,5.8,-,N/A,,Clear,360,2013-03-04 15:53:00
11:14 AM,19.6,5.7,55,30.14,10.0,North,6.9,-,N/A,,Clear,360,2013-03-04 16:14:00
11:33 AM,20.8,5.5,52,30.14,10.0,North,9.2,-,N/A,,Clear,360,2013-03-04 16:33:00
11:53 AM,22.1,5.7,49,30.14,10.0,North,5.8,-,N/A,,Clear,10,2013-03-04 16:53:00
12:13 PM,23.0,4.8,46,30.13,10.0,North,3.5,-,N/A,,Clear,360,2013-03-04 17:13:00
12:33 PM,19.4,8.4,62,30.13,10.0,Calm,Calm,-,N/A,,Clear,0,2013-03-04 17:33:00
12:53 PM,19.0,9.1,65,30.12,10.0,WSW,5.8,-,N/A,,Clear,250,2013-03-04 17:53:00
1:13 PM,19.6,11.5,71,30.12,10.0,WSW,6.9,-,N/A,,Clear,240,2013-03-04 18:13:00
1:53 PM,20.8,9.7,62,30.10,10.0,WSW,8.1,-,N/A,,Clear,250,2013-03-04 18:53:00
2:13 PM,22.1,8.6,56,30.10,10.0,WSW,5.8,-,N/A,,Clear,250,2013-03-04 19:13:00
2:33 PM,22.8,7.0,51,30.10,10.0,WSW,8.1,-,N/A,,Clear,240,2013-03-04 19:33:00
2:53 PM,22.8,10.0,58,30.09,10.0,WSW,9.2,-,N/A,,Clear,240,2013-03-04 19:53:00
3:13 PM,22.8,11.1,61,30.09,10.0,WSW,10.4,-,N/A,,Clear,240,2013-03-04 20:13:00
3:33 PM,23.0,10.9,60,30.09,10.0,WSW,9.2,-,N/A,,Clear,240,2013-03-04 20:33:00
3:53 PM,23.0,10.9,60,30.09,10.0,WSW,6.9,-,N/A,,Clear,240,2013-03-04 20:53:00
4:13 PM,23.5,10.4,57,30.09,10.0,WSW,8.1,-,N/A,,Clear,240,2013-03-04 21:13:00
4:33 PM,23.4,10.8,59,30.10,10.0,WSW,4.6,-,N/A,,Clear,250,2013-03-04 21:33:00
4:54 PM,23.7,10.9,58,30.10,10.0,WSW,4.6,-,N/A,,Clear,250,2013-03-04 21:54:00
5:13 PM,24.1,10.2,56,30.10,10.0,Calm,Calm,-,N/A,,Clear,0,2013-03-04 22:13:00
5:33 PM,24.1,10.0,55,30.10,10.0,West,3.5,-,N/A,,Clear,260,2013-03-04 22:33:00
5:53 PM,23.9,9.7,55,30.10,10.0,Calm,Calm,-,N/A,,Clear,0,2013-03-04 22:53:00
6:13 PM,24.6,2.8,39,30.10,10.0,Calm,Calm,-,N/A,,Clear,0,2013-03-04 23:13:00
6:34 PM,23.7,1.0,38,30.11,10.0,North,6.9,-,N/A,,Clear,10,2013-03-04 23:34:00
6:53 PM,22.8,2.5,42,30.11,10.0,North,6.9,-,N/A,,Clear,10,2013-03-04 23:53:00
7:13 PM,22.1,3.0,44,30.12,10.0,North,6.9,-,N/A,,Clear,10,2013-03-05 00:13:00
7:53 PM,21.2,3.0,46,30.13,10.0,NNW,5.8,-,N/A,,Clear,340,2013-03-05 00:53:00
8:13 PM,20.1,3.0,48,30.13,10.0,NNW,5.8,-,N/A,,Clear,330,2013-03-05 01:13:00
8:34 PM,18.7,3.9,53,30.13,10.0,NNW,9.2,-,N/A,,Clear,330,2013-03-05 01:34:00
8:53 PM,19.4,6.3,57,30.13,10.0,NNW,6.9,-,N/A,,Clear,340,2013-03-05 01:53:00
9:34 PM,18.3,7.7,63,30.13,10.0,North,8.1,-,N/A,,Clear,350,2013-03-05 02:34:00
9:53 PM,18.1,9.3,68,30.13,10.0,North,8.1,-,N/A,,Clear,360,2013-03-05 02:53:00
10:13 PM,19.0,10.6,70,30.13,10.0,North,6.9,-,N/A,,Clear,10,2013-03-05 03:13:00
10:34 PM,19.2,11.7,72,30.12,10.0,North,4.6,-,N/A,,Clear,10,2013-03-05 03:34:00
10:53 PM,18.9,12.4,76,30.12,10.0,North,6.9,-,N/A,,Clear,10,2013-03-05 03:53:00
11:13 PM,19.4,13.5,78,30.12,10.0,North,8.1,-,N/A,,Clear,360,2013-03-05 04:13:00
11:33 PM,19.4,13.8,79,30.12,10.0,NNE,4.6,-,N/A,,Clear,20,2013-03-05 04:33:00
11:53 PM,20.1,14.9,80,30.13,10.0,NNE,8.1,-,N/A,,Clear,30,2013-03-05 04:53:00